Regional Weather Roundup
Issued by NWS

Home | Current Version | Previous Version | Text Only | Print | Product List | Glossary On
Versions: 1 2 3 4 5 6 7 8 9 10 11 12 13 14 15 16 17 18 19 20 21 22 23 24 25 26 27 28 29 30 31 32 33 34 35 36 37 38 39 40 41 42 43 44 45 46 47 48 49 50
000
ASUS46 KSTO 230809
RWRCA

NORTHERN AND CENTRAL CA REGIONAL WEATHER ROUNDUP
NATIONAL WEATHER SERVICE SACRAMENTO CA
100 AM PDT WED JUL 23 2014

NOTE: FAIR INDICATES FEW OR NO CLOUDS BELOW 12,000 FEET WITH NO
SIGNIFICANT WEATHER AND/OR OBSTRUCTIONS TO VISIBILITY.

CAZ001-003-230900-
NORTHWEST AREA

CITY           SKY/WX    TMP DP  RH WIND       PRES   REMARKS
CRESCENT CITY  CLOUDY    58  57  97 CALM      30.12S
ARCATA         NOT AVBL
SHELTER COVE   NOT AVBL
UKIAH          CLOUDY    64  55  72 N6        30.10S
$$

CAZ006-505>513-230900-
BAY AREA

CITY           SKY/WX    TMP DP  RH WIND       PRES   REMARKS
SANTA ROSA     CLEAR     58  55  90 CALM      30.10S
SAN RAFAEL     N/A       65  MM  MM MISG
NAPA           CLOUDY    63  59  87 W9        30.11R
CONCORD        CLOUDY    65  57  75 SW12G18   30.11R
OAKLAND CITY   N/A       65  MM  MM MISG
OAKLAND        CLOUDY    66  57  72 W9        30.11F
SAN FRAN CITY  N/A       65  MM  79 MISG
SAN FRAN ARPT  PTCLDY    66  57  72 SW7       30.11F
LIVERMORE      CLOUDY    65  57  75 W10       30.10S
HAYWARD        CLOUDY    68  61  78 W9        30.11S
REDWOOD CITY   N/A       MM  MM  MM MISG
MOFFETT ARPT   CLEAR     65  56  72 CALM      30.11F
SAN JOSE ARPT  CLEAR     64  57  78 NW3       30.11S
$$
CAZ034-037-514>518-230900-
CENTRAL COAST

CITY           SKY/WX    TMP DP  RH WIND       PRES   REMARKS
WATSONVILLE    CLEAR     60  55  83 W5        30.12F
SALINAS        CLEAR     62  56  80 N3        30.12S
MONTEREY       CLEAR     58  53  84 E3        30.13S
PT PIEDRAS BLS NOT AVBL
SAN LUIS OBISP CLEAR     60  55  83 NW6       30.09F
SANTA MARIA    CLEAR     62  56  80 CALM      30.10F
$$
CAZ015-016-230900-
NORTHERN SACRAMENTO VALLEY

CITY           SKY/WX    TMP DP  RH WIND       PRES   REMARKS
REDDING        CLEAR     75  52  44 S16G25    29.99R
RED BLUFF      CLEAR     74  56  53 SE16      30.01R
OROVILLE       CLEAR     71  56  58 SE14      30.06R
$$
CAZ016>018-230900-
SOUTHERN SACRAMENTO VALLEY

CITY           SKY/WX    TMP DP  RH WIND       PRES   REMARKS
AUBURN         CLEAR     63  55  77 SE7       30.12R
LINCOLN        FAIR      64  55  72 SE13      30.07R
MARYSVILLE     CLEAR     66  57  72 S10       30.06R
SAC INTL ARPT  CLEAR     64  56  75 SE8       30.06R
MATHER AIRPORT NOT AVBL
DOWNTOWN SAC   N/A       64  MM  MM MISG
SAC EXEC ARPT  CLEAR     63  57  81 S5        30.08R
VACAVILLE      CLEAR     64  54  69 W8        30.08R
TRAVIS AFB     NOT AVBL
$$
CAZ019>021-230900-
SAN JOAQUIN VALLEY

CITY           SKY/WX    TMP DP  RH WIND       PRES   REMARKS
STOCKTON       CLEAR     63  56  78 CALM      30.09R
MODESTO        CLEAR     65  57  75 N9        30.08R
MERCED         CLEAR     68  56  65 NW14      30.06S
LEMOORE        CLEAR     71  56  58 NW21G29   30.03R
FRESNO         CLEAR     72  58  61 NW18      30.03R
HANFORD        CLEAR     72  57  59 NW17G25   30.02R
PORTERVILLE    CLEAR     72  46  40 SW6       30.03R
BAKERSFIELD    CLEAR     76  38  25 NW7       30.02R
$$
CAZ011-012-071-230900-
NORTHERN MOUNTAINS

CITY           SKY/WX    TMP DP  RH WIND       PRES   REMARKS
YREKA          CLEAR     62  50  64 NE7       30.07R
MOUNT SHASTA   CLEAR     64  52  64 CALM      30.11S
ALTURAS        CLEAR     54  45  71 CALM      30.16S
$$
CAZ011-012-071-230900-
SIERRA NEVADA MTNS

CITY           SKY/WX    TMP DP  RH WIND       PRES   REMARKS
BLUE CANYON    CLEAR     59  49  69 SE5       30.25S
TRUCKEE        CLEAR     59  43  55 CALM      30.27R
TAHOE VLY ARPT CLEAR     52  45  77 CALM      30.28S
MAMMOTH LAKES  FAIR      54  37  54 SW3       30.36F
$$



USA.gov is the U.S. government's official web portal to all federal, state and local government web resources and services.